Tracking 19794 objects as of 22-Jul-2019
HD Live streaming from Space Station
objects crossing your sky now

ARIANE 2 DEB

Track ARIANE 2 DEB now!


NORAD ID: 33551
Int'l Code: 1989-006AT
Perigee: 1,339.6 km
Apogee: 35,716.4 km
Inclination: 8.7 °
Period: 651.7 minutes
Semi major axis: 24898 km
RCS: 0.1256 m2 (medium)
Launch date: January 27, 1989
Source: France (FR)
Launch site: FRENCH GUIANA (FRGUI)

Note: This is SATELLITE DEBRIS
aabbcc
Your satellite tracking list
Your tracking list is empty




NASA's NSSDC Master Catalog

Two Line Element Set (TLE):
1 33551U 89006AT  19202.51573076 -.00000124  00000-0  00000+0 0  9995
2 33551   8.6617 164.1382 6903258 310.5631 229.4148  2.20968524112815
Source of the keplerian elements: AFSPC